Location: Julian California
(33.0790°N, 116.6010°W)
Time: 17:18:50
(UTC-07:00)

Cosmos 1943 Rocket - Pass Details

Date: 19 May 2017
Orbit: 813 x 843 km, 71.0° (Epoch: 22 September)

Event Time Altitude Azimuth Distance (km) Brightness Sun altitude
Rises 21:50:09 0° 334° (NNW) 3,378 6.6 -22.8°
Reaches altitude 10° 21:52:38 10° 331° (NNW) 2,436 5.6 -23.1°
Maximum altitude 21:58:06 59° 253° (WSW) 944 2.5 -23.9°
Enters shadow 21:59:45 42° 197° (SSW) 1,161 2.6 -24.1°
